Weather History for Garden City, KS

Change the Weather History Date:

Friday, January 10, 2014

  Actual Average Record
Temperature  
Mean Temperature 36 °F 31 °F  
Max Temperature 46 °F 44 °F 72 °F (1953)
Min Temperature 25 °F 18 °F -11 °F (1962)
Degree Days  
Heating Degree Days 29 34  
Month to date heating degree days 405 340  
Since 1 July heating degree days 2526 2463  
Cooling Degree Days 0 0  
Month to date cooling degree days 0 0  
Year to date cooling degree days 0 0  
Moisture  
Dew Point 25 °F    
Average Humidity 67    
Maximum Humidity 100    
Minimum Humidity 33    
Precipitation  
Precipitation 0.00 in 0.01 in 0.11 in (2013)
Month to date precipitation 0.01 0.10  
Year to date precipitation 0.01 0.10  
Sea Level Pressure  
Sea Level Pressure 29.70 in    
Wind  
Wind Speed 14 mph (West)    
Max Wind Speed 36 mph    
Max Gust Speed 45 mph    
Visibility 6 miles    
Events      
T = Trace of Precipitation, MM = Missing Value Source: NWS Daily Summary

Daily Weather History Graph

Daily Weather History Graph

Search for Another Location

Airport:

Trip Planner

Search our weather history database for the weather conditions in past years. The results will help you decide how hot, cold, wet, or windy it might be!

Date:

Astronomy

Jan. 10, 2014 Rise Set
Actual Time 7:58 AM CST 5:42 PM CST
Civil Twilight 7:29 AM CST 6:11 PM CST
Nautical Twilight 6:57 AM CST 6:44 PM CST
Astronomical Twilight 6:25 AM CST 7:15 PM CST
Moon 1:46 PM CST (1/10) 3:09 AM CST (1/10)
Length of Visible Light 10h 41m
Length of Day
9h 43m
Waxing Gibbous, 75% of the Moon is Illuminated
Jan 10
Waxing Gibbous
Jan 15
Full
Jan 23
Last Quarter
Jan 30
New
Feb 6
First Quarter

Hourly Weather History & Observations

Time (CST) Temp. Windchill Dew Point Humidity Pressure Visibility Wind Dir Wind Speed Gust Speed Precip Events Conditions
12:42 AM 28.0 °F 16.5 °F 27.0 °F 96% 29.70 in 2.5 mi South 15.0 mph - N/A   Overcast
12:54 AM 28.0 °F 17.5 °F 27.0 °F 96% 29.75 in 1.8 mi South 12.7 mph - N/A   Overcast
1:18 AM 28.9 °F 17.7 °F 28.0 °F 96% 29.67 in 0.8 mi South 15.0 mph - N/A   Mist
1:50 AM 28.4 °F 18.0 °F 28.4 °F 100% 29.65 in 1.0 mi South 12.7 mph - N/A   Mist
1:54 AM 30.0 °F 19.5 °F 28.9 °F 96% 29.70 in 1.0 mi South 13.8 mph - N/A   Mist
2:39 AM 30.0 °F 20.0 °F 28.9 °F 96% 29.63 in 2.0 mi South 12.7 mph - N/A   Overcast
2:51 AM 30.2 °F 19.8 °F 28.4 °F 93% 29.63 in 1.2 mi South 13.8 mph - N/A   Overcast
2:54 AM 30.0 °F 20.0 °F 28.9 °F 96% 29.68 in 1.2 mi South 12.7 mph - N/A   Overcast
3:29 AM 28.9 °F 21.1 °F 28.0 °F 96% 29.60 in 0.8 mi South 8.1 mph - N/A   Mist
3:36 AM 28.0 °F 20.8 °F 28.0 °F 100% 29.60 in 1.5 mi South 6.9 mph - N/A   Overcast
3:47 AM 28.0 °F 20.0 °F 27.0 °F 96% 29.60 in 2.0 mi South 8.1 mph - N/A   Mostly Cloudy
3:54 AM 28.0 °F 20.0 °F 27.0 °F 96% 29.64 in 2.5 mi South 8.1 mph - N/A   Mostly Cloudy
3:59 AM 27.0 °F 17.3 °F 26.1 °F 96% 29.59 in 3.0 mi South 10.4 mph - N/A   Scattered Clouds
4:54 AM 26.1 °F 18.4 °F 26.1 °F 100% 29.63 in 4.0 mi SW 6.9 mph - N/A   Clear
5:54 AM 27.0 °F 18.7 °F 25.0 °F 92% 29.64 in 6.0 mi West 8.1 mph - N/A   Overcast
6:54 AM 27.0 °F 15.2 °F 23.0 °F 85% 29.66 in 8.0 mi WNW 15.0 mph - N/A   Mostly Cloudy
7:54 AM 28.0 °F 14.3 °F 24.1 °F 85% 29.72 in 7.0 mi NNW 21.9 mph - N/A   Clear
8:54 AM 28.9 °F 18.2 °F 26.1 °F 89% 29.75 in 6.0 mi NNW 13.8 mph - N/A   Mostly Cloudy
9:54 AM 32.0 °F 25.6 °F 28.0 °F 85% 29.75 in 7.0 mi NW 6.9 mph - N/A   Overcast
10:54 AM 39.0 °F 31.8 °F 27.0 °F 62% 29.75 in 10.0 mi NW 11.5 mph - N/A   Clear
11:54 AM 43.0 °F 34.8 °F 19.9 °F 40% 29.71 in 10.0 mi NW 18.4 mph 29.9 mph N/A   Clear
12:54 PM 45.0 °F 35.6 °F 17.1 °F 33% 29.67 in 10.0 mi WNW 27.6 mph 36.8 mph N/A   Clear
1:54 PM 45.0 °F 35.6 °F 21.0 °F 39% 29.65 in 10.0 mi NW 27.6 mph 38.0 mph N/A   Mostly Cloudy
2:54 PM 43.0 °F 32.7 °F 26.1 °F 51% 29.66 in 10.0 mi NW 28.8 mph 38.0 mph N/A   Clear
3:54 PM 43.0 °F 34.0 °F 28.0 °F 56% 29.68 in 10.0 mi NNW 21.9 mph 33.4 mph N/A   Mostly Cloudy
4:54 PM 42.1 °F 33.3 °F 25.0 °F 51% 29.71 in 10.0 mi NNW 19.6 mph 26.5 mph N/A   Mostly Cloudy
5:54 PM 32.0 °F 24.2 °F 25.0 °F 75% 29.75 in 10.0 mi NNW 9.2 mph - N/A   Clear
6:54 PM 32.0 °F 24.2 °F 23.0 °F 69% 29.77 in 10.0 mi NW 9.2 mph - N/A   Clear
7:54 PM 30.9 °F 22.8 °F 21.9 °F 69% 29.81 in 10.0 mi WNW 9.2 mph - N/A   Clear
8:54 PM 28.9 °F 19.8 °F 21.9 °F 75% 29.83 in 10.0 mi West 10.4 mph - N/A   Clear
9:54 PM 28.0 °F 19.3 °F 19.9 °F 72% 29.84 in 10.0 mi WNW 9.2 mph - N/A   Clear
10:54 PM 28.9 °F 19.8 °F 21.0 °F 72% 29.85 in 10.0 mi WNW 10.4 mph - N/A   Clear
11:54 PM 28.9 °F 19.8 °F 21.0 °F 72% 29.86 in 10.0 mi WNW 10.4 mph - N/A   Clear